Total_Precipitation_Accumulation
0.14 0.25 0.42 0.49 0.55 0.48 0.33 0.22 0.16 0.16 0.18 0.17 0.14 0.13 0.14 0.14 0.13 0.13 0.12 0.12 0.12 0.13 0.17 0.20 0.22 0.25 0.24 0.24 0.28 0.35 0.40 0.50 0.62 0.84 1.17 1.60 1.82 1.95 1.97 1.99 1.90 1.69 1.46 1.46
0.19 0.17 0.20 0.23 0.26 0.28 0.22 0.17 0.14 0.11 0.12 0.10 0.07 0.06 0.06 0.07 0.07 0.08 0.09 0.09 0.09 0.11 0.12 0.11 0.13 0.15 0.14 0.15 0.17 0.27 0.33 0.42 0.56 0.85 1.17 1.52 1.88 1.97 1.99 1.99 1.95 1.83 1.70 1.70
0.18 0.15 0.14 0.16 0.19 0.20 0.19 0.18 0.15 0.11 0.10 0.07 0.05 0.04 0.04 0.04 0.05 0.06 0.06 0.07 0.08 0.10 0.11 0.09 0.08 0.09 0.11 0.11 0.12 0.18 0.24 0.39 0.67 1.01 1.33 1.53 1.82 1.95 2.01 1.97 1.97 2.00 1.95 1.85
0.22 0.17 0.13 0.14 0.14 0.15 0.19 0.14 0.10 0.08 0.08 0.06 0.05 0.06 0.05 0.06 0.10 0.12 0.13 0.13 0.15 0.17 0.14 0.12 0.09 0.07 0.08 0.09 0.11 0.14 0.20 0.40 0.74 1.08 1.34 1.59 1.94 2.05 2.03 2.06 2.05 2.06 2.09 2.04
0.17 0.16 0.14 0.11 0.11 0.12 0.15 0.11 0.09 0.08 0.08 0.05 0.03 0.05 0.05 0.08 0.16 0.21 0.23 0.23 0.23 0.20 0.15 0.12 0.10 0.09 0.10 0.10 0.13 0.20 0.34 0.52 0.78 0.99 1.24 1.60 1.86 1.98 2.14 2.08 2.06 2.06 2.13 2.15
0.20 0.14 0.12 0.12 0.11 0.09 0.10 0.08 0.07 0.08 0.08 0.06 0.03 0.07 0.13 0.17 0.19 0.21 0.22 0.23 0.23 0.20 0.16 0.16 0.15 0.15 0.16 0.18 0.24 0.33 0.49 0.64 0.85 1.02 1.22 1.41 1.67 1.82 1.97 2.07 2.01 2.00 2.06 2.16
0.15 0.11 0.09 0.08 0.08 0.05 0.05 0.07 0.13 0.14 0.17 0.13 0.07 0.16 0.28 0.23 0.18 0.19 0.20 0.21 0.23 0.24 0.26 0.30 0.31 0.34 0.41 0.44 0.48 0.56 0.65 0.76 0.87 0.97 1.06 1.13 1.30 1.47 1.54 1.71 1.80 1.92 1.93 1.99
0.06 0.05 0.05 0.04 0.03 0.03 0.02 0.05 0.12 0.16 0.16 0.15 0.17 0.36 0.41 0.27 0.23 0.22 0.23 0.25 0.29 0.37 0.43 0.53 0.61 0.69 0.76 0.75 0.74 0.81 0.86 0.84 0.83 0.87 0.94 0.97 1.04 1.13 1.21 1.26 1.30 1.48 1.65 1.69
0.05 0.03 0.03 0.02 0.02 0.01 0.02 0.04 0.07 0.14 0.12 0.13 0.20 0.43 0.44 0.32 0.31 0.31 0.32 0.33 0.42 0.61 0.71 0.81 0.91 0.92 0.93 0.90 0.85 0.86 0.89 0.86 0.84 0.84 0.84 0.80 0.79 0.86 0.97 1.00 1.07 1.14 1.24 1.26
0.05 0.03 0.02 0.02 0.01 0.01 0.03 0.07 0.13 0.26 0.34 0.30 0.31 0.48 0.52 0.44 0.39 0.37 0.41 0.49 0.65 0.91 1.06 1.19 1.27 1.17 1.10 1.09 1.13 1.02 0.93 0.85 0.82 0.82 0.82 0.76 0.73 0.78 0.81 0.82 0.89 0.87 0.89 0.91
0.05 0.04 0.02 0.02 0.03 0.05 0.10 0.16 0.24 0.37 0.45 0.57 0.70 0.85 0.68 0.58 0.58 0.65 0.75 0.83 1.00 1.26 1.43 1.52 1.53 1.43 1.23 1.10 1.10 1.04 0.93 0.82 0.72 0.71 0.76 0.76 0.71 0.73 0.77 0.76 0.71 0.66 0.69 0.75
0.06 0.11 0.08 0.03 0.07 0.11 0.22 0.37 0.50 0.74 0.74 0.67 0.87 1.09 0.84 0.69 0.71 0.74 0.80 0.92 1.10 1.22 1.30 1.34 1.30 1.29 1.18 1.08 1.00 0.95 0.85 0.71 0.65 0.70 0.73 0.75 0.67 0.61 0.64 0.64 0.66 0.58 0.55 0.60
0.12 0.22 0.21 0.15 0.21 0.29 0.37 0.45 0.54 0.63 0.78 0.85 1.04 1.23 0.92 0.71 0.69 0.75 0.87 0.91 0.90 0.88 0.98 1.07 1.13 1.04 1.00 0.92 0.87 0.95 0.95 0.83 0.81 0.84 0.90 0.83 0.70 0.66 0.64 0.60 0.61 0.57 0.56 0.59
0.18 0.25 0.30 0.34 0.40 0.47 0.51 0.46 0.43 0.54 0.75 0.83 0.94 0.97 0.75 0.62 0.62 0.64 0.72 0.72 0.70 0.74 0.78 0.84 0.92 0.88 0.89 0.83 0.80 0.89 0.94 0.95 1.02 1.10 1.06 0.89 0.77 0.70 0.64 0.59 0.54 0.54 0.58 0.62
0.12 0.13 0.15 0.16 0.16 0.24 0.43 0.56 0.51 0.53 0.60 0.84 0.76 0.60 0.54 0.51 0.53 0.54 0.56 0.56 0.52 0.56 0.56 0.55 0.55 0.56 0.63 0.63 0.60 0.65 0.72 0.83 0.98 1.05 0.94 0.80 0.68 0.58 0.53 0.56 0.51 0.52 0.59 0.63
0.04 0.04 0.03 0.04 0.06 0.15 0.37 0.49 0.52 0.52 0.48 0.47 0.42 0.40 0.30 0.29 0.34 0.33 0.32 0.33 0.32 0.32 0.33 0.31 0.28 0.28 0.33 0.33 0.35 0.39 0.47 0.62 0.85 0.93 0.81 0.64 0.56 0.53 0.48 0.47 0.44 0.43 0.45 0.51
0.01 0.03 0.05 0.05 0.06 0.14 0.38 0.42 0.46 0.35 0.20 0.17 0.23 0.24 0.17 0.18 0.26 0.26 0.27 0.29 0.25 0.23 0.23 0.24 0.22 0.20 0.20 0.20 0.23 0.30 0.36 0.50 0.60 0.62 0.58 0.47 0.41 0.39 0.38 0.37 0.38 0.40 0.42 0.45
0.03 0.08 0.11 0.09 0.12 0.33 0.59 0.46 0.39 0.31 0.16 0.10 0.10 0.11 0.12 0.16 0.20 0.19 0.22 0.27 0.24 0.20 0.21 0.21 0.21 0.20 0.21 0.22 0.23 0.32 0.37 0.39 0.45 0.52 0.50 0.44 0.39 0.36 0.35 0.34 0.35 0.43 0.44 0.43
0.11 0.13 0.16 0.16 0.19 0.37 0.46 0.31 0.26 0.34 0.33 0.12 0.08 0.08 0.10 0.11 0.14 0.13 0.13 0.17 0.17 0.14 0.13 0.13 0.13 0.12 0.12 0.12 0.11 0.13 0.17 0.22 0.27 0.30 0.35 0.34 0.29 0.30 0.34 0.33 0.39 0.43 0.44 0.48
0.23 0.20 0.23 0.23 0.25 0.37 0.31 0.14 0.11 0.23 0.43 0.17 0.06 0.05 0.04 0.05 0.08 0.06 0.06 0.06 0.05 0.04 0.03 0.03 0.03 0.03 0.03 0.02 0.03 0.04 0.05 0.06 0.09 0.10 0.14 0.18 0.19 0.23 0.29 0.38 0.44 0.42 0.41 0.46
0.14 0.21 0.29 0.37 0.46 0.62 0.42 0.18 0.13 0.30 0.40 0.15 0.04 0.01 0.01 0.01 0.02 0.02 0.03 0.03 0.01 0.00 0.00 0.00 0.00 0.01 0.01 0.01 0.01 0.02 0.02 0.02 0.02 0.02 0.04 0.07 0.11 0.17 0.25 0.33 0.32 0.33 0.36 0.39
0.20 0.32 0.46 0.55 0.71 0.88 0.57 0.34 0.30 0.27 0.14 0.06 0.01 0.00 0.00 0.00 0.00 0.01 0.02 0.02 0.01 0.00 0.00 0.00 0.00 0.00 0.00 0.00 0.00 0.00 0.00 0.00 0.00 0.00 0.01 0.02 0.04 0.07 0.12 0.20 0.23 0.26 0.30 0.32
0.21 0.44 0.61 0.60 0.62 0.57 0.41 0.30 0.20 0.15 0.09 0.02 0.00 0.00 0.00 0.00 0.00 0.00 0.01 0.01 0.01 0.00 0.00 0.00 0.00 0.00 0.00 0.00 0.00 0.00 0.00 0.00 0.00 0.00 0.00 0.00 0.01 0.02 0.06 0.12 0.17 0.21 0.27 0.29
0.06 0.12 0.16 0.18 0.21 0.19 0.16 0.11 0.07 0.06 0.05 0.01 0.00 0.00 0.00 0.00 0.00 0.00 0.00 0.01 0.01 0.00 0.00 0.00 0.00 0.00 0.00 0.00 0.00 0.00 0.00 0.00 0.00 0.00 0.00 0.00 0.01 0.01 0.03 0.06 0.13 0.21 0.24 0.23
0.02 0.02 0.02 0.04 0.05 0.06 0.07 0.05 0.03 0.03 0.02 0.01 0.00 0.00 0.00 0.00 0.00 0.00 0.00 0.01 0.01 0.01 0.00 0.00 0.00 0.00 0.00 0.00 0.00 0.00 0.00 0.00 0.00 0.00 0.00 0.00 0.00 0.01 0.02 0.02 0.06 0.13 0.15 0.14
0.01 0.01 0.02 0.01 0.01 0.02 0.04 0.02 0.01 0.02 0.01 0.00 0.00 0.00 0.00 0.00 0.00 0.00 0.00 0.00 0.01 0.01 0.00 0.00 0.00 0.00 0.00 0.00 0.00 0.00 0.00 0.00 0.00 0.00 0.00 0.00 0.00 0.01 0.01 0.02 0.03 0.05 0.05 0.07